When you browse on this site, cookies collect data to enhance your experience and personalize the content and advertising you see.
Visit our Privacy Policy to learn more. By continuing to use the site, you agree to this use of cookies and data.
  • In Switzerland
  • List of Countries
  • For 7 days
  • Water Temperature
  • Satellite Maps
  • Weather Map
  • Weather Widgets
  • user-avatar
    Login

    Hourly Weather Pinneberg

    Today, 23 July, Tuesday

    Time Temperature Precipitation Wind Pressure Humidity
    00:00 +17°C° 0 mm 2 mps 764 mmHg 95%
    01:00 +18°C° 0 mm 1 mps 764 mmHg 96%
    02:00 +16°C° 0 mm 1 mps 764 mmHg 96%
    03:00 +16°C° 0 mm 2 mps 764 mmHg 97%
    04:00 +16°C° 0 mm 2 mps 764 mmHg 97%
    05:00 +17°C° 0 mm 2 mps 764 mmHg 94%
    06:00 +18°C° 0 mm 2 mps 764 mmHg 92%
    07:00 +19°C° 0 mm 2 mps 764 mmHg 89%
    08:00 +21°C° 0 mm 2 mps 764 mmHg 82%
    09:00 +24°C° 0 mm 2 mps 764 mmHg 74%
    10:00 +26°C° 0 mm 2 mps 764 mmHg 66%
    11:00 +27°C° 0 mm 2 mps 764 mmHg 62%
    12:00 +28°C° 0 mm 2 mps 764 mmHg 58%
    13:00 +29°C° 0 mm 2 mps 764 mmHg 54%
    14:00 +29°C° 0 mm 2 mps 764 mmHg 55%
    15:00 +29°C° 0 mm 2 mps 764 mmHg 56%
    16:00 +29°C° 0 mm 2 mps 764 mmHg 57%
    17:00 +28°C° 0 mm 2 mps 763 mmHg 63%
    18:00 +27°C° 0 mm 2 mps 763 mmHg 70%
    19:00 +26°C° 0 mm 2 mps 763 mmHg 76%
    20:00 +24°C° 0 mm 2 mps 763 mmHg 81%
    21:00 +22°C° 0 mm 1 mps 763 mmHg 85%
    22:00 +21°C° 0 mm 1 mps 763 mmHg 90%
    23:00 +20°C° 0 mm 1 mps 763 mmHg 91%

    Tomorrow, 24 July, Wednesday

    Time Temperature Precipitation Wind Pressure Humidity
    00:00 +20°C° 0 mm 1 mps 763 mmHg 92%
    01:00 +19°C° 0 mm 2 mps 763 mmHg 94%
    02:00 +18°C° 0 mm 2 mps 762 mmHg 94%
    03:00 +18°C° 0 mm 2 mps 762 mmHg 95%
    04:00 +18°C° 0 mm 2 mps 762 mmHg 95%
    05:00 +19°C° 0 mm 2 mps 762 mmHg 92%
    06:00 +20°C° 0 mm 2 mps 762 mmHg 88%
    07:00 +21°C° 0 mm 2 mps 761 mmHg 84%
    08:00 +24°C° 0 mm 2 mps 761 mmHg 77%
    09:00 +26°C° 0 mm 2 mps 761 mmHg 70%
    10:00 +27°C° 0 mm 2 mps 761 mmHg 63%
    11:00 +29°C° 0 mm 2 mps 761 mmHg 58%
    12:00 +30°C° 0 mm 2 mps 761 mmHg 52%
    13:00 +32°C° 0 mm 2 mps 761 mmHg 47%
    14:00 +32°C° 0 mm 2 mps 760 mmHg 46%
    15:00 +34°C° 0 mm 2 mps 760 mmHg 45%
    16:00 +34°C° 0 mm 2 mps 760 mmHg 45%
    17:00 +32°C° 0 mm 2 mps 760 mmHg 52%
    18:00 +30°C° 0 mm 2 mps 760 mmHg 59%
    19:00 +29°C° 0 mm 2 mps 760 mmHg 66%
    20:00 +28°C° 0 mm 2 mps 760 mmHg 69%
    21:00 +26°C° 0 mm 2 mps 760 mmHg 71%
    22:00 +24°C° 0 mm 2 mps 761 mmHg 73%
    23:00 +24°C° 0 mm 2 mps 761 mmHg 73%

    Day after tomorrow, 25 July, Thursday

    Time Temperature Precipitation Wind Pressure Humidity
    00:00 +23°C° 0 mm 2 mps 760 mmHg 73%
    01:00 +23°C° 0 mm 2 mps 760 mmHg 73%
    02:00 +23°C° 0 mm 2 mps 761 mmHg 73%
    03:00 +21°C° 0 mm 3 mps 761 mmHg 73%
    04:00 +21°C° 0 mm 3 mps 761 mmHg 73%
    05:00 +22°C° 0 mm 3 mps 761 mmHg 72%
    06:00 +24°C° 0 mm 3 mps 761 mmHg 70%
    07:00 +25°C° 0 mm 3 mps 761 mmHg 68%
    08:00 +26°C° 0 mm 3 mps 761 mmHg 63%
    09:00 +28°C° 0 mm 3 mps 761 mmHg 58%
    10:00 +30°C° 0 mm 3 mps 761 mmHg 53%
    11:00 +33°C° 0 mm 3 mps 761 mmHg 50%
    12:00 +34°C° 0 mm 3 mps 761 mmHg 47%
    13:00 +35°C° 0 mm 3 mps 761 mmHg 44%
    14:00 +35°C° 0 mm 3 mps 761 mmHg 44%
    15:00 +35°C° 0 mm 3 mps 761 mmHg 44%
    16:00 +35°C° 0 mm 3 mps 761 mmHg 45%
    17:00 +34°C° 0 mm 3 mps 761 mmHg 51%
    18:00 +31°C° 0 mm 3 mps 761 mmHg 57%
    19:00 +29°C° 0 mm 3 mps 761 mmHg 64%
    20:00 +28°C° 0 mm 3 mps 761 mmHg 65%
    21:00 +27°C° 0 mm 3 mps 761 mmHg 67%
    22:00 +25°C° 0 mm 4 mps 761 mmHg 68%
    23:00 +24°C° 0 mm 3 mps 761 mmHg 70%

    26 July, Friday

    Time Temperature Precipitation Wind Pressure Humidity
    00:00 +22°C° 0 mm 3 mps 761 mmHg 73%
    01:00 +22°C° 0 mm 3 mps 761 mmHg 75%
    02:00 +21°C° 0 mm 3 mps 761 mmHg 78%
    03:00 +20°C° 0 mm 3 mps 761 mmHg 81%
    04:00 +20°C° 0 mm 3 mps 761 mmHg 83%
    05:00 +20°C° 0 mm 3 mps 761 mmHg 80%
    06:00 +21°C° 0 mm 3 mps 761 mmHg 76%
    07:00 +22°C° 0 mm 3 mps 761 mmHg 72%
    08:00 +23°C° 0 mm 4 mps 761 mmHg 66%
    09:00 +26°C° 0 mm 4 mps 761 mmHg 61%
    10:00 +28°C° 0 mm 4 mps 761 mmHg 55%
    11:00 +29°C° 0 mm 5 mps 761 mmHg 51%
    12:00 +30°C° 0 mm 5 mps 760 mmHg 48%
    13:00 +32°C° 0 mm 5 mps 760 mmHg 45%
    14:00 +32°C° 0 mm 5 mps 760 mmHg 47%
    15:00 +32°C° 0 mm 5 mps 759 mmHg 48%
    16:00 +32°C° 0 mm 5 mps 759 mmHg 49%
    17:00 +30°C° 0 mm 5 mps 759 mmHg 54%
    18:00 +28°C° 0 mm 5 mps 759 mmHg 60%
    19:00 +27°C° 0 mm 5 mps 759 mmHg 65%
    20:00 +26°C° 0 mm 5 mps 759 mmHg 64%
    21:00 +23°C° 0 mm 5 mps 759 mmHg 62%
    22:00 +22°C° 0 mm 5 mps 759 mmHg 61%
    23:00 +21°C° 0 mm 5 mps 759 mmHg 64%

    27 July, Saturday

    Time Temperature Precipitation Wind Pressure Humidity
    00:00 +20°C° 0 mm 4 mps 759 mmHg 67%
    01:00 +19°C° 0 mm 4 mps 759 mmHg 70%
    02:00 +18°C° 0 mm 4 mps 758 mmHg 73%
    03:00 +18°C° 0 mm 4 mps 758 mmHg 77%
    04:00 +17°C° 0 mm 4 mps 758 mmHg 80%
    05:00 +18°C° 0 mm 4 mps 758 mmHg 80%
    06:00 +19°C° 0 mm 4 mps 757 mmHg 79%
    07:00 +19°C° 0 mm 5 mps 757 mmHg 79%
    08:00 +21°C° 0 mm 5 mps 757 mmHg 72%
    09:00 +23°C° 0 mm 5 mps 757 mmHg 66%
    10:00 +26°C° 0 mm 6 mps 757 mmHg 59%
    11:00 +27°C° 0 mm 6 mps 757 mmHg 56%
    12:00 +28°C° 0 mm 6 mps 757 mmHg 53%
    13:00 +28°C° 0 mm 6 mps 756 mmHg 50%
    14:00 +29°C° 0 mm 6 mps 756 mmHg 51%
    15:00 +29°C° 0 mm 6 mps 756 mmHg 51%
    16:00 +29°C° 0 mm 6 mps 756 mmHg 52%
    17:00 +28°C° 0 mm 6 mps 755 mmHg 57%
    18:00 +27°C° 0 mm 5 mps 755 mmHg 62%
    19:00 +26°C° 0 mm 5 mps 755 mmHg 67%
    20:00 +25°C° 0 mm 5 mps 756 mmHg 70%
    21:00 +23°C° 0 mm 5 mps 756 mmHg 74%
    22:00 +22°C° 0 mm 5 mps 756 mmHg 77%
    23:00 +21°C° 0 mm 5 mps 756 mmHg 80%

    28 July, Sunday

    Time Temperature Precipitation Wind Pressure Humidity
    00:00 +21°C° 0 mm 4 mps 756 mmHg 82%
    01:00 +20°C° 0 mm 4 mps 756 mmHg 84%
    02:00 +20°C° 0 mm 4 mps 756 mmHg 86%
    03:00 +19°C° 0 mm 4 mps 756 mmHg 87%
    04:00 +19°C° 0 mm 3 mps 756 mmHg 89%
    05:00 +20°C° 0 mm 4 mps 756 mmHg 86%
    06:00 +21°C° 0 mm 4 mps 757 mmHg 84%
    07:00 +22°C° 0 mm 4 mps 757 mmHg 81%
    08:00 +25°C° 0 mm 4 mps 757 mmHg 75%
    09:00 +26°C° 0 mm 5 mps 757 mmHg 68%
    10:00 +28°C° 0 mm 5 mps 757 mmHg 62%
    11:00 +29°C° 0 mm 5 mps 757 mmHg 59%
    12:00 +30°C° 0 mm 5 mps 757 mmHg 56%
    13:00 +32°C° 0 mm 6 mps 757 mmHg 53%
    14:00 +32°C° 0 mm 6 mps 757 mmHg 53%
    15:00 +32°C° 0 mm 6 mps 757 mmHg 53%
    16:00 +32°C° 0 mm 6 mps 757 mmHg 53%
    17:00 +29°C° 0 mm 5 mps 757 mmHg 58%
    18:00 +28°C° 0 mm 5 mps 757 mmHg 64%
    19:00 +26°C° 0 mm 5 mps 757 mmHg 70%
    20:00 +25°C° 0 mm 4 mps 758 mmHg 73%
    21:00 +23°C° 0 mm 4 mps 758 mmHg 76%
    22:00 +22°C° 0 mm 4 mps 759 mmHg 80%
    23:00 +22°C° 0 mm 3 mps 759 mmHg 81%
    Show more